Wind_Speed
19 19 18 18 17 16 16 16 16 16 16 16 15 15 16 15 15 14 13 13 12 12 11 10 10 10 10 10 10 10 11 11 11 12 12 12 12 12 11 12 12 12 12
22 21 20 20 19 18 18 18 17 17 17 17 16 16 16 16 15 15 15 14 14 13 12 12 12 11 11 11 11 11 12 12 12 12 12 11 11 12 12 12 12 12 12
22 22 20 20 20 20 19 20 19 19 18 18 18 17 18 17 17 17 16 16 16 15 14 13 13 13 13 13 12 12 13 12 12 12 11 11 11 12 12 12 12 12 12
23 22 22 21 21 21 22 21 21 20 20 20 19 19 19 19 19 19 18 18 17 17 16 15 15 15 15 14 13 13 13 13 13 12 12 12 12 12 12 12 12 12 12
25 24 24 23 24 24 24 23 23 22 22 22 21 20 20 21 21 20 20 20 19 18 18 17 16 16 15 15 15 14 13 13 13 13 13 13 13 13 12 12 12 13 12
26 26 26 26 26 25 25 24 24 25 24 24 24 23 22 22 22 21 21 21 21 19 18 19 18 17 16 16 16 15 14 14 13 13 13 13 13 13 13 13 13 13 12
28 28 27 28 27 27 27 27 25 25 25 25 25 25 24 24 23 23 22 21 21 20 18 19 19 18 17 16 17 17 15 15 14 14 14 14 14 14 14 14 14 14 13
28 28 28 29 29 28 28 28 27 26 26 26 26 26 26 25 25 24 23 23 22 21 20 20 19 19 19 18 17 17 17 16 15 15 15 15 14 15 15 15 15 15 14
29 29 28 29 30 29 28 28 28 28 28 27 27 27 27 28 27 26 25 25 24 23 24 22 22 22 21 20 18 18 18 17 17 17 16 16 16 16 16 16 16 16 16
29 29 29 30 30 30 29 29 30 30 30 29 29 28 28 28 28 27 26 26 25 25 24 23 24 24 23 22 20 19 19 19 19 18 18 17 17 17 17 17 17 17 17
28 28 28 30 30 31 31 31 31 32 31 31 31 31 30 29 29 28 28 27 26 25 25 24 24 23 23 22 21 21 21 20 20 20 19 18 18 18 18 19 19 19 19
31 30 30 30 30 31 32 31 31 32 32 32 32 32 31 30 30 30 29 27 26 26 25 24 23 23 23 23 23 22 21 21 21 21 20 20 20 20 20 20 20 20 20
33 31 30 31 31 32 32 32 31 32 32 32 33 33 32 32 32 30 29 27 27 27 26 24 23 23 23 23 22 21 21 21 21 21 21 21 21 21 21 21 21 21 21
33 32 31 31 31 31 32 32 32 32 32 32 32 33 33 33 32 30 28 27 28 28 27 25 24 22 22 22 22 21 21 22 22 22 22 22 22 21 22 22 22 21 21
32 31 31 32 32 32 33 33 33 33 33 33 32 32 33 33 33 31 29 28 28 28 27 26 25 24 23 23 23 22 23 23 23 23 23 23 22 22 21 21 21 22 21
32 32 32 32 32 32 32 32 32 33 34 33 33 32 33 33 32 31 29 28 28 27 27 26 26 26 25 25 25 24 24 24 24 23 23 23 22 22 22 22 22 22 22
31 31 32 32 32 32 33 33 33 34 33 33 33 32 32 32 31 30 29 28 28 27 26 25 26 26 25 25 25 25 25 24 23 23 23 24 23 23 22 22 23 23 23
31 31 31 32 32 32 33 33 33 34 33 33 32 32 31 31 30 31 30 29 28 27 26 25 26 26 26 26 25 25 25 24 23 23 23 23 23 23 23 23 23 23 22
31 31 31 31 31 31 32 32 33 33 33 33 32 31 31 30 29 30 30 29 28 28 27 26 26 25 24 24 24 24 24 23 23 22 22 23 23 24 24 23 23 23 23
30 28 29 29 30 30 31 31 32 32 32 32 32 31 30 29 29 29 29 29 29 28 28 27 26 25 25 24 24 24 24 23 24 24 23 23 24 24 24 24 24 24 24
28 28 27 28 28 28 29 29 30 31 31 31 31 31 30 30 30 30 30 29 28 28 28 27 27 26 25 25 25 25 25 25 25 25 25 25 25 25 25 25 26 26 25
27 26 25 25 26 27 28 28 29 30 31 30 29 29 30 30 30 29 29 28 28 28 29 28 27 28 27 26 26 25 25 25 26 26 26 26 26 26 26 27 27 27 27
25 24 24 24 25 26 27 27 29 29 29 28 28 28 29 28 28 29 29 29 28 28 28 27 27 26 27 26 26 26 26 26 26 26 26 26 26 26 26 27 27 28 28
25 24 24 24 24 24 25 26 27 27 27 27 27 26 27 27 28 28 28 28 28 28 27 27 27 26 26 26 27 27 27 28 27 27 27 27 27 27 28 27 27 27 27
25 24 24 24 23 24 25 25 24 24 24 25 26 26 27 27 27 27 27 28 28 28 28 28 28 28 28 28 28 28 28 29 29 29 28 27 27 28 28 28 28 27 27
25 24 24 24 24 23 23 23 23 24 24 24 25 26 27 27 27 27 28 29 29 29 29 29 30 30 29 28 29 29 29 29 29 29 28 28 27 27 28 28 29 28 28
Wind_Direction
281 282 283 284 286 288 286 286 286 287 288 287 288 290 291 292 294 297 298 299 298 297 297 296 294 290 291 295 296 297 298 296 295 296 296 296 294 291 288 289 291 287 285
276 279 280 281 283 284 283 282 282 284 284 284 286 288 289 288 290 293 294 295 294 291 291 292 291 290 292 294 294 296 297 297 298 299 299 298 297 294 290 290 290 284 283
271 274 279 281 281 282 282 281 281 281 281 282 284 285 285 285 285 287 290 288 288 287 286 286 288 290 291 292 292 294 296 297 297 298 297 298 300 302 297 294 293 286 285
271 273 276 280 281 282 282 280 279 279 279 280 281 281 281 283 283 282 284 285 283 281 280 283 285 287 290 287 288 291 294 295 296 296 296 297 297 299 301 299 294 289 289
274 275 274 275 277 278 281 279 279 278 276 277 277 279 279 279 281 282 282 282 281 278 279 282 283 286 286 283 284 289 292 293 295 296 295 295 295 295 296 296 292 294 293
275 275 273 274 275 276 277 278 277 274 273 273 275 276 276 277 280 279 280 280 277 278 278 278 280 282 282 281 282 286 290 293 296 297 296 295 295 295 295 294 292 291 292
274 272 272 273 274 275 276 275 275 273 271 271 271 273 274 275 277 278 277 277 278 278 278 277 277 277 279 280 281 283 286 290 293 293 293 293 294 296 297 296 295 292 292
273 273 274 273 273 273 274 273 273 273 271 269 269 270 271 272 274 276 276 276 278 277 278 278 278 277 277 277 279 281 285 289 291 291 291 290 291 293 293 295 295 294 292
272 276 275 273 272 271 271 270 272 273 271 270 269 268 269 271 273 274 275 275 275 276 277 276 276 276 274 275 278 279 282 285 287 288 287 286 288 290 292 292 293 293 292
272 273 275 273 271 270 270 270 271 273 273 271 270 270 270 270 272 271 272 273 273 273 275 275 274 273 271 271 274 277 280 281 283 284 285 285 285 287 289 293 293 293 292
274 272 271 271 271 270 270 271 271 272 272 271 270 269 270 271 272 271 271 271 270 272 273 273 272 270 270 269 270 273 276 279 280 282 283 283 285 288 291 292 292 292 291
274 272 271 270 271 271 272 271 271 271 271 270 269 268 269 270 271 271 271 268 269 270 272 271 269 267 269 270 270 271 274 276 279 281 282 283 285 287 290 291 290 290 289
274 272 271 271 270 270 270 270 270 270 270 269 267 267 268 269 270 271 271 269 268 269 270 270 270 267 268 270 269 270 272 275 278 281 280 281 284 285 289 291 291 291 291
274 272 271 271 270 269 269 269 269 270 271 270 268 268 267 268 268 268 268 268 268 268 269 268 269 268 269 269 267 268 271 273 276 279 280 281 282 283 286 288 290 290 290
270 269 269 269 270 269 268 270 268 269 271 270 269 268 267 267 265 265 265 265 267 268 267 267 268 268 268 268 267 268 272 275 277 277 276 278 280 280 283 286 288 288 288
270 270 271 271 270 270 269 269 270 270 271 270 268 268 266 264 264 262 262 264 266 269 268 266 267 266 265 266 266 267 272 276 278 279 277 278 280 281 282 284 286 287 287
273 273 271 270 269 269 270 269 270 270 271 269 267 265 265 265 263 261 262 263 265 268 267 267 265 265 265 263 264 267 270 275 276 278 280 280 278 279 280 282 284 285 286
275 274 271 270 269 269 270 271 270 269 269 268 266 264 262 263 261 260 261 262 262 265 266 266 266 264 262 262 264 266 268 273 275 276 280 280 279 279 281 283 284 284 285
275 274 272 270 269 269 270 271 270 269 268 266 265 264 262 260 260 260 259 260 260 261 261 261 263 263 261 262 263 264 267 270 274 275 278 280 280 279 279 281 282 283 284
278 274 270 269 269 270 269 268 268 267 266 265 264 263 260 258 259 261 260 261 260 259 259 260 262 261 258 259 262 264 266 269 273 276 277 280 281 280 279 279 280 282 283
279 277 272 269 270 271 269 267 267 268 266 264 263 262 260 259 259 260 260 260 260 260 260 262 261 260 260 259 260 263 266 269 272 277 280 282 281 280 279 280 281 281 282
282 278 274 274 272 271 270 267 268 268 266 264 262 260 258 257 258 257 258 259 260 261 262 262 261 259 258 259 260 262 267 270 274 278 280 281 279 279 279 281 281 282 282
285 282 279 277 274 273 272 269 269 268 265 261 261 258 256 256 256 257 257 258 259 259 260 259 259 259 259 258 259 262 266 270 273 277 278 281 282 280 280 281 282 282 282
283 282 281 279 276 274 273 271 269 266 264 262 261 259 259 257 256 257 256 256 258 258 257 256 258 258 261 261 262 263 266 271 273 276 277 278 280 281 280 279 282 283 283
283 281 280 278 276 275 275 272 269 267 264 262 259 257 257 257 257 256 255 256 258 257 257 256 258 259 259 261 263 265 267 271 273 275 277 278 280 280 280 280 281 282 283
281 279 277 277 276 275 273 272 270 267 267 266 263 259 258 258 258 258 257 256 256 257 258 258 259 258 258 259 263 266 267 270 272 273 276 278 278 279 281 281 281 282 283
Height
5882 5882 5882 5881 5881 5881 5881 5881 5880 5880 5879 5879 5879 5878 5878 5877 5877 5876 5875 5875 5874 5873 5873 5872 5872 5871 5871 5870 5870 5869 5868 5867 5866 5866 5865 5864 5863 5862 5861 5860 5860 5859 5859
5878 5878 5878 5878 5877 5878 5878 5877 5877 5876 5876 5876 5875 5875 5875 5874 5874 5874 5873 5872 5872 5871 5871 5870 5870 5869 5869 5868 5868 5867 5866 5865 5864 5863 5862 5862 5861 5860 5859 5858 5858 5857 5856
5874 5873 5873 5873 5873 5873 5873 5873 5873 5873 5872 5872 5872 5872 5871 5871 5871 5871 5870 5869 5869 5869 5868 5868 5868 5867 5867 5866 5865 5865 5864 5863 5862 5861 5860 5859 5859 5858 5857 5856 5855 5854 5853
5868 5869 5869 5869 5868 5868 5868 5868 5868 5869 5868 5868 5868 5868 5868 5868 5867 5867 5867 5866 5866 5865 5865 5865 5865 5864 5864 5863 5862 5862 5861 5860 5859 5858 5857 5857 5855 5855 5854 5853 5852 5851 5850
5863 5864 5864 5864 5863 5863 5863 5863 5863 5864 5864 5864 5863 5863 5864 5863 5863 5863 5863 5862 5862 5862 5862 5862 5861 5861 5860 5860 5859 5859 5858 5857 5856 5856 5854 5854 5852 5851 5851 5850 5849 5848 5847
5858 5858 5858 5857 5857 5857 5858 5858 5858 5859 5859 5859 5858 5858 5859 5859 5858 5858 5858 5858 5857 5857 5858 5858 5858 5857 5857 5856 5856 5855 5855 5854 5853 5852 5851 5850 5849 5848 5848 5847 5846 5845 5844
5852 5852 5852 5852 5851 5852 5851 5852 5852 5852 5853 5853 5853 5853 5853 5853 5853 5853 5853 5853 5853 5853 5853 5853 5853 5853 5853 5852 5852 5852 5851 5850 5850 5849 5848 5847 5846 5845 5844 5844 5843 5842 5841
5845 5845 5846 5845 5845 5845 5845 5845 5845 5846 5846 5847 5847 5847 5847 5847 5848 5847 5847 5848 5848 5848 5848 5848 5848 5848 5848 5848 5848 5847 5847 5846 5846 5845 5844 5844 5843 5842 5841 5841 5840 5838 5838
5838 5839 5839 5839 5838 5838 5838 5837 5838 5839 5839 5839 5840 5841 5841 5841 5841 5842 5842 5842 5843 5843 5843 5843 5843 5843 5843 5843 5843 5843 5842 5842 5842 5841 5841 5840 5839 5838 5838 5837 5836 5835 5834
5831 5831 5832 5831 5832 5831 5831 5831 5831 5832 5832 5833 5833 5834 5834 5835 5834 5835 5835 5835 5836 5837 5837 5837 5837 5837 5837 5837 5837 5838 5837 5837 5837 5837 5836 5835 5835 5834 5833 5832 5831 5830 5829
5823 5824 5824 5824 5824 5824 5824 5824 5824 5824 5825 5826 5826 5827 5828 5828 5828 5828 5829 5828 5829 5830 5830 5830 5831 5831 5831 5831 5832 5832 5832 5832 5832 5831 5831 5830 5830 5829 5828 5828 5827 5825 5824
5817 5817 5817 5817 5817 5816 5816 5816 5816 5817 5817 5818 5818 5819 5820 5820 5821 5821 5821 5821 5823 5823 5823 5823 5824 5824 5825 5825 5826 5826 5826 5826 5826 5826 5826 5825 5825 5824 5823 5822 5821 5820 5819
5809 5809 5809 5809 5809 5808 5808 5808 5808 5808 5809 5809 5810 5810 5811 5812 5813 5813 5814 5814 5815 5816 5817 5817 5817 5818 5818 5819 5820 5820 5820 5820 5820 5820 5820 5820 5819 5819 5818 5817 5816 5815 5814
5800 5800 5801 5800 5800 5800 5799 5799 5800 5801 5801 5801 5801 5802 5803 5803 5804 5805 5806 5807 5808 5809 5810 5810 5810 5811 5812 5813 5814 5814 5815 5815 5815 5815 5814 5814 5813 5813 5812 5812 5811 5810 5808
5791 5791 5792 5791 5792 5792 5792 5791 5792 5792 5793 5793 5793 5793 5794 5795 5796 5797 5798 5799 5800 5801 5802 5803 5804 5805 5805 5806 5807 5808 5808 5808 5808 5808 5808 5808 5807 5807 5806 5806 5805 5804 5803
5782 5783 5783 5782 5783 5783 5783 5783 5783 5783 5784 5784 5784 5784 5785 5786 5787 5788 5789 5791 5792 5793 5794 5795 5796 5797 5798 5799 5800 5801 5802 5802 5802 5802 5801 5801 5801 5800 5800 5799 5799 5798 5797
5773 5774 5774 5774 5774 5774 5774 5774 5774 5775 5775 5775 5775 5776 5776 5777 5778 5780 5781 5783 5784 5785 5786 5787 5788 5789 5791 5792 5793 5794 5795 5795 5795 5795 5794 5794 5794 5794 5794 5793 5792 5792 5791
5765 5765 5765 5765 5765 5765 5765 5765 5765 5765 5766 5766 5766 5767 5767 5769 5770 5772 5773 5775 5776 5778 5779 5780 5781 5782 5783 5784 5786 5787 5788 5788 5788 5788 5787 5787 5787 5787 5787 5786 5786 5785 5784
5755 5756 5756 5756 5756 5756 5756 5756 5756 5756 5756 5756 5757 5758 5759 5760 5762 5763 5765 5766 5768 5770 5771 5773 5774 5775 5776 5777 5778 5780 5781 5781 5781 5781 5781 5781 5781 5781 5780 5780 5779 5779 5778
5747 5746 5747 5747 5747 5748 5747 5747 5746 5746 5746 5747 5748 5749 5750 5752 5753 5755 5756 5758 5760 5761 5763 5765 5767 5768 5768 5769 5771 5772 5774 5775 5775 5775 5774 5774 5774 5774 5773 5773 5772 5772 5771
5739 5738 5738 5738 5739 5738 5738 5738 5737 5737 5737 5737 5738 5739 5741 5743 5744 5746 5748 5750 5752 5754 5755 5757 5759 5760 5761 5762 5764 5765 5766 5767 5767 5768 5768 5767 5766 5766 5766 5766 5765 5764 5763
5732 5731 5730 5730 5730 5730 5729 5729 5729 5729 5728 5728 5730 5731 5732 5734 5736 5738 5740 5742 5744 5746 5748 5750 5751 5753 5754 5755 5757 5758 5759 5759 5760 5760 5760 5760 5759 5759 5758 5758 5757 5756 5755
5726 5724 5723 5722 5722 5721 5720 5720 5720 5719 5719 5719 5721 5723 5724 5726 5728 5730 5732 5734 5736 5738 5741 5742 5744 5745 5746 5747 5749 5751 5751 5752 5752 5752 5752 5752 5751 5751 5751 5750 5749 5748 5747
5719 5718 5716 5715 5714 5714 5713 5712 5712 5711 5711 5712 5713 5714 5716 5718 5720 5722 5724 5726 5728 5730 5732 5734 5736 5737 5738 5739 5741 5743 5744 5744 5744 5744 5744 5744 5744 5743 5742 5742 5741 5740 5739
5713 5711 5710 5708 5707 5706 5705 5705 5704 5704 5704 5705 5705 5706 5708 5710 5712 5714 5716 5718 5720 5722 5724 5726 5728 5729 5730 5731 5732 5733 5735 5736 5736 5736 5736 5736 5736 5735 5734 5734 5733 5732 5731
5706 5704 5703 5701 5700 5699 5698 5698 5698 5698 5697 5697 5698 5699 5701 5702 5704 5706 5708 5709 5712 5713 5715 5717 5719 5720 5721 5722 5723 5725 5726 5727 5727 5727 5727 5727 5727 5726 5725 5725 5724 5723 5722